Location: Madrid
(40.4000°N, 3.6830°W)
Time: 22:53:37
(UTC+02:00)

ISS - Pass Details

Date: 23 July 2017
Orbit: 400 x 408 km, 51.6° (Epoch: 24 July)

Event Time Altitude Azimuth Distance (km) Brightness Sun altitude
Rises 05:02:12 0° 311° (NW) 2,315 0.0 -18.9°
Reaches altitude 10° 05:04:25 10° 322° (NW) 1,455 -0.9 -18.6°
Maximum altitude 05:07:23 32° 28° (NNE) 713 -1.9 -18.3°
Drops below altitude 10° 05:10:22 10° 94° (E) 1,453 -0.5 -17.9°
Sets 05:12:35 0° 105° (ESE) 2,311 0.4 -17.6°
